Ecokeeper — SVTY — position and weather

sailwx.info

Track history (hours):
 
Tides and Currents Weather Stations Pressure Air Temp Water Temp Dewpoint Dewpoint Depression Visibility Wind Speed Wind Dir Waves Ship Positions

Ecokeeper

Last reported at 2014-Jul-23 13:04 UTC. Time now 2014-Jul-24 00:15 UTC.
Position N 40°15' E 025°10'.

Length 90 m; draft 6.5 m.

Type: Tanker. MMSI: 240689000.

Date/timePositionNaut miles runAvg speedWind from/ knotsBaromVisibWave heightAir tempDewpointWater temp
2014-Jul-23 13:04N 40°15' E 025°10'5 9.3
2014-Jul-23 12:30N 40°19' E 025°14'18 8.9
2014-Jul-23 10:31N 40°33' E 025°29'10 9.4
2014-Jul-23 09:30N 40°39' E 025°39'9 9.3
2014-Jul-23 08:33N 40°45' E 025°47'8 7.8
2014-Jul-23 07:33N 40°50' E 025°55'0 0.3
2014-Jul-23 06:33N 40°50' E 025°55'0 0.0
2014-Jul-23 05:33N 40°50' E 025°55'0 0.0
2014-Jul-23 04:33N 40°50' E 025°55'0 0.0
2014-Jul-23 03:33N 40°50' E 025°55'0 0.0
2014-Jul-23 02:33N 40°50' E 025°55'0 0.0
2014-Jul-23 01:33N 40°50' E 025°55'0 0.0
2014-Jul-23 00:33N 40°50' E 025°55'0 0.0
2014-Jul-22 23:33N 40°50' E 025°55'0 0.0
2014-Jul-22 22:33N 40°50' E 025°55'0 0.0
2014-Jul-22 21:33N 40°50' E 025°55'0 0.0
2014-Jul-22 20:33N 40°50' E 025°55'0 0.0
2014-Jul-22 19:33N 40°50' E 025°55'0 0.0
2014-Jul-22 18:33N 40°50' E 025°55'0 0.0
2014-Jul-22 17:33N 40°50' E 025°55'0 0.0
2014-Jul-22 16:33N 40°50' E 025°55'0 0.0
2014-Jul-22 15:33N 40°50' E 025°55'0 0.0
2014-Jul-22 14:33N 40°50' E 025°55'0 0.0
2014-Jul-22 13:33N 40°50' E 025°55'0 0.0
2014-Jul-22 12:33N 40°50' E 025°55'0 0.0
2014-Jul-22 11:33N 40°50' E 025°55'0 0.0
2014-Jul-22 10:33N 40°50' E 025°55'0 0.0
2014-Jul-22 09:33N 40°50' E 025°55'0 0.0
2014-Jul-22 08:33N 40°50' E 025°55'0 0.0
2014-Jul-22 07:33N 40°50' E 025°55'0 0.0
2014-Jul-22 06:33N 40°50' E 025°55'0 0.0
2014-Jul-22 05:33N 40°50' E 025°55'0 0.2
2014-Jul-22 04:33N 40°50' E 025°55'2 1.7
2014-Jul-22 03:33N 40°49' E 025°53'8 8.3
2014-Jul-22 02:33N 40°43' E 025°45'9 8.7
2014-Jul-22 01:33N 40°38' E 025°36'8 8.4
2014-Jul-22 00:33N 40°33' E 025°27'8 8.0
2014-Jul-21 23:33N 40°27' E 025°20'9 8.5
2014-Jul-21 22:32N 40°20' E 025°14'8 8.7
2014-Jul-21 21:33N 40°12' E 025°09'3 2.8
2014-Jul-21 20:23N 40°10' E 025°06'1 8.8
2014-Jul-21 20:18N 40°10' E 025°07'118 8.5
2014-Jul-21 06:27N 38°13' E 025°12'17 8.8
2014-Jul-21 04:33N 37°56' E 025°15'9 8.9
2014-Jul-21 03:31N 37°47' E 025°17'9 8.7
2014-Jul-21 02:31N 37°38' E 025°18'7 7.2
2014-Jul-21 01:33N 37°31' E 025°17'7 7.3
2014-Jul-21 00:33N 37°27' E 025°10'9 8.6
2014-Jul-20 23:33N 37°19' E 025°05'9 8.4
2014-Jul-20 22:32N 37°12' E 024°60'9 8.8
2014-Jul-20 21:33N 37°04' E 024°55'9 9.3
2014-Jul-20 20:32N 36°55' E 024°51'9 8.9
2014-Jul-20 19:33N 36°46' E 024°49'10 8.7
2014-Jul-20 18:25N 36°37' E 024°48'8 9.2
2014-Jul-20 17:33N 36°29' E 024°51'9 9.3
2014-Jul-20 16:33N 36°20' E 024°55'9 8.7
2014-Jul-20 15:33N 36°12' E 024°56'9 6.7
2014-Jul-20 14:17N 36°03' E 024°57'7 8.3
2014-Jul-20 13:30N 35°57' E 024°59'44 1.4
2014-Jul-19 06:11N 35°33' E 024°13'15 8.6
2014-Jul-19 04:28N 35°48' E 024°12'9 4.4
2014-Jul-19 02:31N 35°56' E 024°10'9 9.3
2014-Jul-19 01:33N 36°05' E 024°08'1010.1
2014-Jul-19 00:32N 36°15' E 024°05'1210.6
2014-Jul-18 23:21N 36°27' E 024°03'810.4
2014-Jul-18 22:33N 36°36' E 024°01'1010.5
2014-Jul-18 21:33N 36°46' E 023°60'1110.4
2014-Jul-18 20:29N 36°57' E 023°55'12 9.9
2014-Jul-18 19:15N 37°08' E 023°50'27 9.2
2014-Jul-18 16:22N 37°34' E 023°44'8 9.4
2014-Jul-18 15:33N 37°42' E 023°41'9 9.5
2014-Jul-18 14:33N 37°50' E 023°36'7 7.1
2014-Jul-18 13:33N 37°57' E 023°34'0 0.0
2014-Jul-17 02:19N 37°57' E 023°34'2 2.9
2014-Jul-17 01:33N 37°55' E 023°34'4 3.6
2014-Jul-17 00:33N 37°51' E 023°32'0 0.0
2014-Jul-16 23:33N 37°51' E 023°32'0 0.1
2014-Jul-16 22:33N 37°52' E 023°32'0 0.1
2014-Jul-16 21:33N 37°52' E 023°32'0 0.0
2014-Jul-16 20:33N 37°52' E 023°32'0 0.0
2014-Jul-16 19:33N 37°52' E 023°32'0 0.0
2014-Jul-16 18:33N 37°52' E 023°32'0 0.0
2014-Jul-16 17:33N 37°52' E 023°32'0 0.0
2014-Jul-16 16:33N 37°52' E 023°32'0 0.0
2014-Jul-16 15:33N 37°52' E 023°32'0 0.0
2014-Jul-16 14:33N 37°52' E 023°32'0 0.0
2014-Jul-16 13:34N 37°52' E 023°32'0 0.2
2014-Jul-16 12:33N 37°52' E 023°33'0 0.0
2014-Jul-16 11:33N 37°52' E 023°32'0 0.0
2014-Jul-16 10:33N 37°52' E 023°33'0 0.1
2014-Jul-16 09:33N 37°51' E 023°33'0 0.1
2014-Jul-16 08:33N 37°51' E 023°32'0 0.0
2014-Jul-16 07:33N 37°51' E 023°32'0 0.1
2014-Jul-16 06:33N 37°51' E 023°32'0 0.0
2014-Jul-16 05:34N 37°51' E 023°32'0 0.2
2014-Jul-16 04:33N 37°51' E 023°33'6 5.7
2014-Jul-16 03:34N 37°57' E 023°34'0 0.0
2014-Jul-16 02:33N 37°57' E 023°34'0 0.0
2014-Jul-16 01:33N 37°57' E 023°34'0 0.0
2014-Jul-16 00:33N 37°57' E 023°34'0 0.0
2014-Jul-15 23:32N 37°57' E 023°34'0 0.0
2014-Jul-15 22:33N 37°57' E 023°34'0 0.0
2014-Jul-15 21:33N 37°57' E 023°34'0 0.1
2014-Jul-15 20:33N 37°57' E 023°34'5 5.2
2014-Jul-15 19:34N 37°52' E 023°31'0 0.2
2014-Jul-15 18:33N 37°52' E 023°30'0 0.0
2014-Jul-15 17:33N 37°52' E 023°30'0 0.0
2014-Jul-15 16:34N 37°53' E 023°30'0 0.0
2014-Jul-15 15:33N 37°53' E 023°30'0 0.0
2014-Jul-15 14:33N 37°53' E 023°30'0 0.2
2014-Jul-15 13:33N 37°52' E 023°30'0 0.1
2014-Jul-15 12:33N 37°52' E 023°30'0 0.0
2014-Jul-15 11:33N 37°52' E 023°30'0 0.1
2014-Jul-15 10:33N 37°52' E 023°30'0 0.0
2014-Jul-15 09:33N 37°52' E 023°30'0 0.1
2014-Jul-15 08:33N 37°52' E 023°30'0 0.0
2014-Jul-15 07:34N 37°52' E 023°30'0 0.0
2014-Jul-15 06:33N 37°52' E 023°30'4 3.8
2014-Jul-15 05:33N 37°55' E 023°34'2 0.1
2014-Jul-14 05:05N 37°57' E 023°34'  
Track history (hours):
 
Tides and Currents Weather Stations Pressure Air Temp Water Temp Dewpoint Dewpoint Depression Visibility Wind Speed Wind Dir Waves Ship Positions

Ecokeeper

Last reported at 2014-Jul-23 13:04 UTC. Time now 2014-Jul-24 00:15 UTC.
Position N 40°15' E 025°10'.

Length 90 m; draft 6.5 m.

Type: Tanker. MMSI: 240689000.

Date/timePositionNaut miles runAvg speedWind from/ knotsBaromVisibWave heightAir tempDewpointWater temp
2014-Jul-23 13:04N 40°15' E 025°10'5 9.3
2014-Jul-23 12:30N 40°19' E 025°14'18 8.9
2014-Jul-23 10:31N 40°33' E 025°29'10 9.4
2014-Jul-23 09:30N 40°39' E 025°39'9 9.3
2014-Jul-23 08:33N 40°45' E 025°47'8 7.8
2014-Jul-23 07:33N 40°50' E 025°55'0 0.3
2014-Jul-23 06:33N 40°50' E 025°55'0 0.0
2014-Jul-23 05:33N 40°50' E 025°55'0 0.0
2014-Jul-23 04:33N 40°50' E 025°55'0 0.0
2014-Jul-23 03:33N 40°50' E 025°55'0 0.0
2014-Jul-23 02:33N 40°50' E 025°55'0 0.0
2014-Jul-23 01:33N 40°50' E 025°55'0 0.0
2014-Jul-23 00:33N 40°50' E 025°55'0 0.0
2014-Jul-22 23:33N 40°50' E 025°55'0 0.0
2014-Jul-22 22:33N 40°50' E 025°55'0 0.0
2014-Jul-22 21:33N 40°50' E 025°55'0 0.0
2014-Jul-22 20:33N 40°50' E 025°55'0 0.0
2014-Jul-22 19:33N 40°50' E 025°55'0 0.0
2014-Jul-22 18:33N 40°50' E 025°55'0 0.0
2014-Jul-22 17:33N 40°50' E 025°55'0 0.0
2014-Jul-22 16:33N 40°50' E 025°55'0 0.0
2014-Jul-22 15:33N 40°50' E 025°55'0 0.0
2014-Jul-22 14:33N 40°50' E 025°55'0 0.0
2014-Jul-22 13:33N 40°50' E 025°55'0 0.0
2014-Jul-22 12:33N 40°50' E 025°55'0 0.0
2014-Jul-22 11:33N 40°50' E 025°55'0 0.0
2014-Jul-22 10:33N 40°50' E 025°55'0 0.0
2014-Jul-22 09:33N 40°50' E 025°55'0 0.0
2014-Jul-22 08:33N 40°50' E 025°55'0 0.0
2014-Jul-22 07:33N 40°50' E 025°55'0 0.0
2014-Jul-22 06:33N 40°50' E 025°55'0 0.0
2014-Jul-22 05:33N 40°50' E 025°55'0 0.2
2014-Jul-22 04:33N 40°50' E 025°55'2 1.7
2014-Jul-22 03:33N 40°49' E 025°53'8 8.3
2014-Jul-22 02:33N 40°43' E 025°45'9 8.7
2014-Jul-22 01:33N 40°38' E 025°36'8 8.4
2014-Jul-22 00:33N 40°33' E 025°27'8 8.0
2014-Jul-21 23:33N 40°27' E 025°20'9 8.5
2014-Jul-21 22:32N 40°20' E 025°14'8 8.7
2014-Jul-21 21:33N 40°12' E 025°09'3 2.8
2014-Jul-21 20:23N 40°10' E 025°06'1 8.8
2014-Jul-21 20:18N 40°10' E 025°07'118 8.5
2014-Jul-21 06:27N 38°13' E 025°12'17 8.8
2014-Jul-21 04:33N 37°56' E 025°15'9 8.9
2014-Jul-21 03:31N 37°47' E 025°17'9 8.7
2014-Jul-21 02:31N 37°38' E 025°18'7 7.2
2014-Jul-21 01:33N 37°31' E 025°17'7 7.3
2014-Jul-21 00:33N 37°27' E 025°10'9 8.6
2014-Jul-20 23:33N 37°19' E 025°05'9 8.4
2014-Jul-20 22:32N 37°12' E 024°60'9 8.8
2014-Jul-20 21:33N 37°04' E 024°55'9 9.3
2014-Jul-20 20:32N 36°55' E 024°51'9 8.9
2014-Jul-20 19:33N 36°46' E 024°49'10 8.7
2014-Jul-20 18:25N 36°37' E 024°48'8 9.2
2014-Jul-20 17:33N 36°29' E 024°51'9 9.3
2014-Jul-20 16:33N 36°20' E 024°55'9 8.7
2014-Jul-20 15:33N 36°12' E 024°56'9 6.7
2014-Jul-20 14:17N 36°03' E 024°57'7 8.3
2014-Jul-20 13:30N 35°57' E 024°59'44 1.4
2014-Jul-19 06:11N 35°33' E 024°13'15 8.6
2014-Jul-19 04:28N 35°48' E 024°12'9 4.4
2014-Jul-19 02:31N 35°56' E 024°10'9 9.3
2014-Jul-19 01:33N 36°05' E 024°08'1010.1
2014-Jul-19 00:32N 36°15' E 024°05'1210.6
2014-Jul-18 23:21N 36°27' E 024°03'810.4
2014-Jul-18 22:33N 36°36' E 024°01'1010.5
2014-Jul-18 21:33N 36°46' E 023°60'1110.4
2014-Jul-18 20:29N 36°57' E 023°55'12 9.9
2014-Jul-18 19:15N 37°08' E 023°50'27 9.2
2014-Jul-18 16:22N 37°34' E 023°44'8 9.4
2014-Jul-18 15:33N 37°42' E 023°41'9 9.5
2014-Jul-18 14:33N 37°50' E 023°36'7 7.1
2014-Jul-18 13:33N 37°57' E 023°34'0 0.0
2014-Jul-17 02:19N 37°57' E 023°34'2 2.9
2014-Jul-17 01:33N 37°55' E 023°34'4 3.6
2014-Jul-17 00:33N 37°51' E 023°32'0 0.0
2014-Jul-16 23:33N 37°51' E 023°32'0 0.1
2014-Jul-16 22:33N 37°52' E 023°32'0 0.1
2014-Jul-16 21:33N 37°52' E 023°32'0 0.0
2014-Jul-16 20:33N 37°52' E 023°32'0 0.0
2014-Jul-16 19:33N 37°52' E 023°32'0 0.0
2014-Jul-16 18:33N 37°52' E 023°32'0 0.0
2014-Jul-16 17:33N 37°52' E 023°32'0 0.0
2014-Jul-16 16:33N 37°52' E 023°32'0 0.0
2014-Jul-16 15:33N 37°52' E 023°32'0 0.0
2014-Jul-16 14:33N 37°52' E 023°32'0 0.0
2014-Jul-16 13:34N 37°52' E 023°32'0 0.2
2014-Jul-16 12:33N 37°52' E 023°33'0 0.0
2014-Jul-16 11:33N 37°52' E 023°32'0 0.0
2014-Jul-16 10:33N 37°52' E 023°33'0 0.1
2014-Jul-16 09:33N 37°51' E 023°33'0 0.1
2014-Jul-16 08:33N 37°51' E 023°32'0 0.0
2014-Jul-16 07:33N 37°51' E 023°32'0 0.1
2014-Jul-16 06:33N 37°51' E 023°32'0 0.0
2014-Jul-16 05:34N 37°51' E 023°32'0 0.2
2014-Jul-16 04:33N 37°51' E 023°33'6 5.7
2014-Jul-16 03:34N 37°57' E 023°34'0 0.0
2014-Jul-16 02:33N 37°57' E 023°34'0 0.0
2014-Jul-16 01:33N 37°57' E 023°34'0 0.0
2014-Jul-16 00:33N 37°57' E 023°34'0 0.0
2014-Jul-15 23:32N 37°57' E 023°34'0 0.0
2014-Jul-15 22:33N 37°57' E 023°34'0 0.0
2014-Jul-15 21:33N 37°57' E 023°34'0 0.1
2014-Jul-15 20:33N 37°57' E 023°34'5 5.2
2014-Jul-15 19:34N 37°52' E 023°31'0 0.2
2014-Jul-15 18:33N 37°52' E 023°30'0 0.0
2014-Jul-15 17:33N 37°52' E 023°30'0 0.0
2014-Jul-15 16:34N 37°53' E 023°30'0 0.0
2014-Jul-15 15:33N 37°53' E 023°30'0 0.0
2014-Jul-15 14:33N 37°53' E 023°30'0 0.2
2014-Jul-15 13:33N 37°52' E 023°30'0 0.1
2014-Jul-15 12:33N 37°52' E 023°30'0 0.0
2014-Jul-15 11:33N 37°52' E 023°30'0 0.1
2014-Jul-15 10:33N 37°52' E 023°30'0 0.0
2014-Jul-15 09:33N 37°52' E 023°30'0 0.1
2014-Jul-15 08:33N 37°52' E 023°30'0 0.0
2014-Jul-15 07:34N 37°52' E 023°30'0 0.0
2014-Jul-15 06:33N 37°52' E 023°30'4 3.8
2014-Jul-15 05:33N 37°55' E 023°34'2 0.1
2014-Jul-14 05:05N 37°57' E 023°34'  

Dump ship's entire track history